This demonstration page uses our WeatherBlox Daily Observations layout. Learn more.

Left ArrowRight Arrow

38.88101, -77.10428

Hourly Observations for June 10, 2021

Temp ( °F °C ) Dew Point ( °F °C ) Humidity (%) Winds ( mph kmh ) Pressure ( in mb ) Visibility ( mi km ) Precip ( " mm )
12:52 am 00:52 Mostly Cloudy 76 24.4 70 21.1 82 82 SW 8 13 29.99 1016 10 16 N/A
1:52 am 01:52 Mostly Cloudy 76 24.4 70 21.1 82 82 S 6 9 29.99 1016 10 16 N/A
2:52 am 02:52 Mostly Cloudy 77 25 70 21.1 79 79 WSW 6 9 29.98 1015 10 16 N/A
3:52 am 03:52 Cloudy 77 25 70 21.1 79 79 NNW 3 6 29.97 1015 10 16 N/A
4:52 am 04:52 Mostly Cloudy 76 24.4 68 20 77 77 NNW 3 6 29.97 1015 10 16 N/A
5:52 am 05:52 Mostly Cloudy 75 23.9 67 19.4 76 76 N 6 9 29.98 1015 10 16 N/A
6:52 am 06:52 Mostly Cloudy 76 24.4 68 20 77 77 NNW 6 9 29.98 1015 10 16 N/A
7:52 am 07:52 Mostly Cloudy 79 26.1 69 20.6 72 72 N 6 9 29.98 1015 10 16 N/A
8:52 am 08:52 Mostly Cloudy 81 27.2 69 20.6 67 67 N 7 11 29.97 1015 10 16 N/A
9:52 am 09:52 Mostly Cloudy 83 28.3 68 20 61 61 WNW 5 7 29.98 1015 10 16 N/A
10:52 am 10:52 Mostly Cloudy 83 28.3 69 20.6 63 63 SE 6 9 29.97 1015 10 16 N/A
11:52 am 11:52 Mostly Cloudy 86 30 69 20.6 57 57 ESE 5 7 29.96 1015 10 16 N/A
12:52 pm 12:52 Mostly Cloudy 85 29.4 68 20 57 57 SSE 3 6 29.94 1014 10 16 N/A
1:52 pm 13:52 Mostly Cloudy 87 30.6 69 20.6 55 55 SSW 8 13 29.92 1013 10 16 N/A
2:52 pm 14:52 Mostly Cloudy 85 29.4 70 21.1 61 61 N 14 22 29.89 1012 10 16 N/A
3:15 pm 15:15 Mostly Cloudy with Nearby Thunderstorms 84 28.9 70 21.1 63 63 ENE 14 22 29.91 1013 10 16 N/A
3:35 pm 15:35 Mostly Cloudy 82 27.8 70 21.1 67 67 E 16 26 29.91 1013 10 16 N/A
3:52 pm 15:52 Cloudy with Nearby Thunderstorms 78 25.6 70 21.1 76 76 E 14 22 29.91 1013 10 16 0.01 0.25
4:04 pm 16:04 Cloudy with Strong Thunderstorms 72 22 68 20 88 88 E 16 26 29.93 1014 N/A N/A
4:19 pm 16:19 Cloudy with Light Rain 76 24.4 71 21.7 85 85 E 9 15 29.92 1013 10 16 0.01 0.25
4:29 pm 16:29 Cloudy with Thunderstorms 75 23.9 70 21.1 84 84 VRB 5 7 29.93 1013 10 16 0.01 0.25
4:41 pm 16:41 Cloudy with Nearby Thunderstorms 75 23.9 70 21.1 84 84 VRB 7 11 29.94 1014 3 4 0.02 0.51
4:49 pm 16:49 Cloudy with Nearby Thunderstorms 73 23 70 21 89 89 NE 6 9 29.94 1014 1 2 0.24 6.10
4:52 pm 16:52 Cloudy with Nearby Thunderstorms 74 23.3 69 20.6 85 85 NE 8 13 29.93 1014 1 2 0.29 7.37
5:22 pm 17:22 Cloudy with Heavy Rain 73 22.8 69 20.6 87 87 E 5 7 29.94 1014 2 3 0.41 10.41
5:40 pm 17:40 Cloudy with Rain 74 23.3 71 21.7 91 91 ESE 6 9 29.94 1014 4 6 0.49 12.45
5:52 pm 17:52 Cloudy with Light Rain 75 23.9 71 21.7 88 88 E 5 7 29.93 1014 5 8 0.50 12.70
6:52 pm 18:52 Cloudy with Rain 75 23.9 71 21.7 88 88 ENE 7 11 29.92 1013 4 6 0.10 2.54
7:52 pm 19:52 Cloudy with Light Rain 75 23.9 71 21.7 88 88 ENE 8 13 29.93 1014 9 14 0.02 0.51
8:07 pm 20:07 Cloudy with Light Rain 75 23.9 72 22.2 90 90 ENE 10 17 29.94 1014 9 14 0.01 0.25
8:30 pm 20:30 Cloudy with Light Rain 75 23.9 71 21.7 88 88 E 14 22 29.94 1014 10 16 0.01 0.25
8:51 pm 20:51 undefined 70 21.1 69 20.6 97 97 E 14 22 29.88 1012 N/A N/A
8:52 pm 20:52 Cloudy 74 23.3 70 21.1 88 88 ENE 10 17 29.94 1014 10 16 0.01 0.25
9:52 pm 21:52 Cloudy with Light Rain 73 22.8 68 20 84 84 E 9 15 29.96 1015 10 16 0.02 0.51
9:59 pm 21:59 Cloudy 72 22.2 68 20 87 87 E 8 13 29.97 1015 10 16 0.00 0.00
10:42 pm 22:42 Cloudy with Light Rain 72 22.2 67 19.4 84 84 ENE 9 15 29.96 1015 10 16 0.00 0.00
10:52 pm 22:52 Cloudy with Light Rain 72 22.2 67 19.4 84 84 ENE 9 15 29.96 1015 10 16 0.00 0.00
11:10 pm 23:10 Cloudy N/A N/A N/A ENE 9 15 N/A N/A N/A
11:52 pm 23:52 Cloudy with Light Rain 71 21.7 67 19.4 87 87 ENE 8 13 29.96 1014 8 13 0.01 0.25

Powered by AerisWeather